星链-35629(STARLINK-35629)

导读

STARLINK-35629是美国太空探索技术公司Starlink星链互联网星座的成员卫星,于2025年10月22日发射升空。星链星座旨在为全球提供高速低延迟卫星互联网服务,该卫星延续了星链平台的设计,加入星座后承担全球偏远地区网络覆盖、增强热点区域网络容量的任务,进一步拓展了星链星座的服务覆盖范围与网络稳定性。

Basic Information
目录编号:
66127
目录名称:
STARLINK-35629
国际标识:
2025-237P
轨道中心:
EARTH
卫星名称:
星链-35629
卫星全名:
星链-35629(STARLINK-35629)
卫星状态:
在轨 (已飞行318 天)
发射日期:
2025-10-22 UTC
国别 :
美国 (US)
星等 :
--
Orbit Information
数据来源 国际轨道数据 AOE轨道数据
星历时间 2026-09-05T17:00:10+0800
9小时前
查看轨道信息
2026-09-03T07:00:00+0800
2天前
查看轨道信息
半长轴 6840.847km 6840.855km
偏心率 0.0001066 0.0001141
轨道倾角 53.159° 53.158°
近地点辐角 87.472° 60.933°
升交点赤经 284.117° 295.418°
平近点角 272.640° 261.895°
近地点 461.98km 461.937km
远地点 463.44km 463.499km
周期 93.848分钟 93.848分钟
每日圈数 15.343979 15.343952
Detailed Information
固有亮度:
5
最大亮度:
2.5
卫星平台:
Starlink V1.0
覆盖范围:
全球
运营商:
太空探索技术公司
运营商所在国:
美国
制造商(研发单位):
太空探索技术公司
制造商所在国:
美国
使用方式:
暂无
Satellite Introduction
Starlink 计划是 SpaceX 推出的全球卫星互联网项目,通过发射低轨道卫星,为全球尤其是偏远地区提供高速、低延迟的互联网服务。自 2019 年起,Starlink 已部署数千颗卫星,旨在缩小全球数字鸿沟,推动互联网普及。该项目还为军事、航空等行业提供通信支持,带来广泛经济效益。
2D Orbit Map
3D Orbit Map
Orbit Altitude Analysis Chart
Orbit Inclination Analysis Chart
Orbit Comprehensive Analysis Chart
View Comprehensive Chart
Conjunction Data List
Event ID Objects TCA Miss Dist (km) Collision Risk Probability Collision Risk Index (CRI) Action
CDM_260906-172405-701206-612721
OBJECT J (57012)
2026-09-06T
17:24:08+0000
2.877 km
极远距离
1.183917E-6 低风险 0.36